Time,TemperatureF,DewpointF,PressureIn,WindDirection,WindDirectionDegrees,WindSpeedMPH,WindSpeedGustMPH,Humidity,HourlyPrecipIn,Conditions,Clouds,dailyrainin,SoftwareType,DateUTC
2013-01-25 00:01:00,10.5,6.1,30.48,WSW,258,3.7,6.9,82,0.00,SCT,,0.00,WeatherDisplay:10.37,2013-01-25 05:01:00,
2013-01-25 00:02:00,10.5,6.1,30.48,West,281,6.9,10.4,82,0.00,SCT,,0.00,WeatherDisplay:10.37,2013-01-25 05:02:00,
2013-01-25 00:03:00,10.5,6.1,30.48,WNW,286,5.6,10.4,82,0.00,SCT,,0.00,WeatherDisplay:10.37,2013-01-25 05:03:00,
2013-01-25 00:08:00,10.6,6.2,30.48,NW,314,11.2,12.7,82,0.00,SCT,,0.00,WeatherDisplay:10.37,2013-01-25 05:08:00,
2013-01-25 00:13:00,10.7,6.3,30.48,NW,320,7.2,13.8,82,0.00,SCT,,0.00,WeatherDisplay:10.37,2013-01-25 05:13:00,
2013-01-25 00:18:00,11.0,6.3,30.47,WNW,303,7.9,15.0,81,0.00,SCT,,0.00,WeatherDisplay:10.37,2013-01-25 05:18:00,
2013-01-25 00:23:00,11.1,6.1,30.48,NW,323,7.0,12.7,80,0.00,SCT,,0.00,WeatherDisplay:10.37,2013-01-25 05:23:00,
2013-01-25 00:29:00,11.1,6.1,30.48,WNW,302,7.0,10.4,80,0.00,SCT,,0.00,WeatherDisplay:10.37,2013-01-25 05:29:00,
2013-01-25 00:34:00,11.1,6.1,30.48,NW,321,9.6,16.1,80,0.00,SCT,,0.00,WeatherDisplay:10.37,2013-01-25 05:34:00,
2013-01-25 00:39:00,10.9,5.7,30.48,NNW,346,10.6,16.1,79,0.00,SCT,,0.00,WeatherDisplay:10.37,2013-01-25 05:39:00,
2013-01-25 00:45:00,10.8,5.6,30.48,NNW,340,8.1,13.8,79,0.00,SCT,,0.00,WeatherDisplay:10.37,2013-01-25 05:45:00,
2013-01-25 00:50:00,10.8,5.6,30.48,NW,306,6.1,15.0,79,0.00,SCT,,0.00,WeatherDisplay:10.37,2013-01-25 05:50:00,
2013-01-25 00:55:00,10.7,5.5,30.48,WNW,296,9.8,17.0,79,0.00,SCT,,0.00,WeatherDisplay:10.37,2013-01-25 05:55:00,
2013-01-25 01:00:00,10.6,5.6,30.48,NNE,29,4.9,11.5,80,0.00,SCT,,0.00,WeatherDisplay:10.37,2013-01-25 06:00:00,
2013-01-25 01:05:00,10.5,5.3,30.48,NW,306,9.3,16.1,79,0.00,-SN,,0.00,WeatherDisplay:10.37,2013-01-25 06:05:00,
2013-01-25 01:10:00,10.5,5.3,30.48,NW,304,13.6,21.0,79,0.00,-SN,,0.00,WeatherDisplay:10.37,2013-01-25 06:10:00,
2013-01-25 01:16:00,10.5,5.3,30.48,NW,326,11.1,15.0,79,0.00,-SN,,0.00,WeatherDisplay:10.37,2013-01-25 06:16:00,
2013-01-25 01:21:00,10.5,5.3,30.47,NW,304,11.9,17.3,79,0.00,-SN,,0.00,WeatherDisplay:10.37,2013-01-25 06:21:00,
2013-01-25 01:26:00,10.4,5.5,30.48,NW,313,8.6,17.0,80,0.00,-SN,,0.00,WeatherDisplay:10.37,2013-01-25 06:26:00,
2013-01-25 01:31:00,10.4,5.2,30.48,WNW,294,8.5,20.0,79,0.00,-SN,,0.00,WeatherDisplay:10.37,2013-01-25 06:31:00,
2013-01-25 01:36:00,10.3,5.1,30.48,NNW,338,10.3,16.1,79,0.00,-SN,,0.00,WeatherDisplay:10.37,2013-01-25 06:36:00,
2013-01-25 01:41:00,10.3,5.1,30.48,NE,36,8.4,17.3,79,0.00,-SN,,0.00,WeatherDisplay:10.37,2013-01-25 06:41:00,
2013-01-25 01:46:00,10.2,5.0,30.47,NNW,327,6.6,19.6,79,0.00,-SN,,0.00,WeatherDisplay:10.37,2013-01-25 06:46:00,
2013-01-25 01:52:00,10.1,5.2,30.48,NW,324,8.5,17.3,80,0.00,-SN,,0.00,WeatherDisplay:10.37,2013-01-25 06:52:00,
2013-01-25 01:57:00,10.0,4.8,30.48,NNW,338,8.3,10.4,79,0.00,-SN,,0.00,WeatherDisplay:10.37,2013-01-25 06:57:00,
2013-01-25 02:02:00,9.9,4.7,30.47,North,355,6.6,12.7,79,0.00,-SN,,0.00,WeatherDisplay:10.37,2013-01-25 07:02:00,
2013-01-25 02:07:00,9.8,4.6,30.48,NNW,331,7.9,12.0,79,0.00,-SN,,0.00,WeatherDisplay:10.37,2013-01-25 07:07:00,
2013-01-25 02:12:00,9.8,4.6,30.48,NNW,348,6.3,11.5,79,0.00,-SN,,0.00,WeatherDisplay:10.37,2013-01-25 07:12:00,
2013-01-25 02:18:00,9.7,4.5,30.47,WNW,299,7.3,11.5,79,0.00,-SN,,0.00,WeatherDisplay:10.37,2013-01-25 07:18:00,
2013-01-25 02:23:00,9.5,4.0,30.48,North,360,6.9,12.7,78,0.00,-SN,,0.00,WeatherDisplay:10.37,2013-01-25 07:23:00,
2013-01-25 02:28:00,9.5,3.7,30.48,WNW,294,8.2,15.0,77,0.00,-SN,,0.00,WeatherDisplay:10.37,2013-01-25 07:28:00,
2013-01-25 02:33:00,9.3,3.5,30.48,NW,321,10.5,15.0,77,0.00,-SN,,0.00,WeatherDisplay:10.37,2013-01-25 07:33:00,
2013-01-25 02:38:00,9.2,3.4,30.48,WNW,288,7.4,15.0,77,0.00,-SN,,0.00,WeatherDisplay:10.37,2013-01-25 07:38:00,
2013-01-25 02:44:00,9.1,3.6,30.48,NNW,338,6.0,8.1,78,0.00,-SN,,0.00,WeatherDisplay:10.37,2013-01-25 07:44:00,
2013-01-25 02:49:00,9.0,3.5,30.47,NW,324,7.6,11.0,78,0.00,-SN,,0.00,WeatherDisplay:10.37,2013-01-25 07:49:00,
2013-01-25 02:54:00,8.9,3.4,30.47,North,5,5.8,11.5,78,0.00,-SN,,0.00,WeatherDisplay:10.37,2013-01-25 07:54:00,
2013-01-25 02:59:00,8.9,3.4,30.46,NNW,337,7.0,11.5,78,0.00,-SN,,0.00,WeatherDisplay:10.37,2013-01-25 07:59:00,
2013-01-25 03:04:00,8.8,3.3,30.47,NW,322,7.0,8.1,78,0.00,-SN,,0.00,WeatherDisplay:10.37,2013-01-25 08:04:00,
2013-01-25 03:09:00,8.7,3.5,30.47,NNE,33,3.8,8.1,79,0.00,-SN,,0.00,WeatherDisplay:10.37,2013-01-25 08:09:00,
2013-01-25 03:15:00,8.5,3.3,30.47,North,355,0.2,2.3,79,0.00,-SN,,0.00,WeatherDisplay:10.37,2013-01-25 08:15:00,
2013-01-25 03:20:00,8.1,2.9,30.48,North,10,3.5,4.6,79,0.00,-SN,,0.00,WeatherDisplay:10.37,2013-01-25 08:20:00,
2013-01-25 03:25:00,7.8,2.9,30.48,NNE,28,3.4,4.6,80,0.00,-SN,,0.00,WeatherDisplay:10.37,2013-01-25 08:25:00,
2013-01-25 03:30:00,7.6,2.7,30.47,NNE,24,3.1,4.6,80,0.00,-SN,,0.00,WeatherDisplay:10.37,2013-01-25 08:30:00,
2013-01-25 03:35:00,7.4,2.5,30.47,NE,34,1.5,3.5,80,0.00,-SN,,0.00,WeatherDisplay:10.37,2013-01-25 08:35:00,
2013-01-25 03:41:00,7.1,2.2,30.47,NNW,327,1.3,3.5,80,0.00,-SN,,0.00,WeatherDisplay:10.37,2013-01-25 08:41:00,
2013-01-25 03:46:00,6.9,2.0,30.47,North,5,1.6,6.0,80,0.00,-SN,,0.00,WeatherDisplay:10.37,2013-01-25 08:46:00,
2013-01-25 03:51:00,6.6,1.7,30.47,NE,35,0.0,1.1,80,0.00,-SN,,0.00,WeatherDisplay:10.37,2013-01-25 08:51:00,
2013-01-25 03:56:00,6.4,1.5,30.48,North,351,1.1,3.5,80,0.00,-SN,,0.00,WeatherDisplay:10.37,2013-01-25 08:56:00,
2013-01-25 04:01:00,6.1,1.0,30.47,North,355,1.7,3.0,79,0.00,-SN,,0.00,WeatherDisplay:10.37,2013-01-25 09:01:00,
2013-01-25 04:07:00,5.8,1.0,30.47,ENE,63,2.3,3.5,80,0.00,-SN,,0.00,WeatherDisplay:10.37,2013-01-25 09:07:00,
2013-01-25 04:12:00,5.6,0.5,30.47,North,10,0.0,0.0,79,0.00,-SN,,0.00,WeatherDisplay:10.37,2013-01-25 09:12:00,
2013-01-25 04:17:00,5.4,0.3,30.47,NNE,31,0.0,0.0,79,0.00,-SN,,0.00,WeatherDisplay:10.37,2013-01-25 09:17:00,
2013-01-25 04:23:00,5.1,0.3,30.47,NNE,26,0.5,2.3,80,0.00,-SN,,0.00,WeatherDisplay:10.37,2013-01-25 09:23:00,
2013-01-25 04:28:00,4.7,-0.1,30.47,NNE,26,0.0,0.0,80,0.00,-SN,,0.00,WeatherDisplay:10.37,2013-01-25 09:28:00,
2013-01-25 04:33:00,4.4,-0.4,30.47,NE,37,1.3,3.5,80,0.00,-SN,,0.00,WeatherDisplay:10.37,2013-01-25 09:33:00,
2013-01-25 04:38:00,4.1,-0.4,30.46,NE,36,0.8,2.3,81,0.00,-SN,,0.00,WeatherDisplay:10.37,2013-01-25 09:38:00,
2013-01-25 04:43:00,3.6,-1.2,30.46,NNE,24,0.0,0.0,80,0.00,-SN,,0.00,WeatherDisplay:10.37,2013-01-25 09:43:00,
2013-01-25 04:49:00,3.2,-1.3,30.46,NNE,24,0.0,0.0,81,0.00,-SN,,0.00,WeatherDisplay:10.37,2013-01-25 09:49:00,
2013-01-25 04:54:00,2.8,-1.4,30.46,NNE,24,0.0,0.0,82,0.00,-SN,,0.00,WeatherDisplay:10.37,2013-01-25 09:54:00,
2013-01-25 04:59:00,2.4,-1.8,30.46,NNE,24,0.0,0.0,82,0.00,-SN,,0.00,WeatherDisplay:10.37,2013-01-25 09:59:00,
2013-01-25 05:04:00,2.1,-2.1,30.45,NNE,24,0.0,0.0,82,0.00,-SN,,0.00,WeatherDisplay:10.37,2013-01-25 10:04:00,
2013-01-25 05:09:00,1.9,-1.8,30.45,NNE,27,0.0,0.0,84,0.00,-SN,,0.00,WeatherDisplay:10.37,2013-01-25 10:09:00,
2013-01-25 05:14:00,1.5,-2.5,30.45,NNE,27,0.0,0.0,83,0.00,-SN,,0.00,WeatherDisplay:10.37,2013-01-25 10:14:00,
2013-01-25 05:20:00,1.3,-2.4,30.45,NE,36,0.0,0.0,84,0.00,-SN,,0.00,WeatherDisplay:10.37,2013-01-25 10:20:00,
2013-01-25 05:25:00,1.1,-2.6,30.44,NE,36,0.0,0.0,84,0.00,-SN,,0.00,WeatherDisplay:10.37,2013-01-25 10:25:00,
2013-01-25 05:30:00,0.8,-2.9,30.44,NE,36,0.0,0.0,84,0.00,-SN,,0.00,WeatherDisplay:10.37,2013-01-25 10:30:00,
2013-01-25 05:35:00,0.6,-2.8,30.45,NE,36,0.0,0.0,85,0.00,-SN,,0.00,WeatherDisplay:10.37,2013-01-25 10:35:00,
2013-01-25 05:40:00,0.5,-2.9,30.44,NE,36,0.0,0.0,85,0.00,-SN,,0.00,WeatherDisplay:10.37,2013-01-25 10:40:00,
2013-01-25 05:46:00,0.4,-2.8,30.45,NE,36,0.0,0.0,86,0.00,-SN,,0.00,WeatherDisplay:10.37,2013-01-25 10:46:00,
2013-01-25 05:51:00,0.2,-3.0,30.45,NE,36,0.0,0.0,86,0.00,-SN,,0.00,WeatherDisplay:10.37,2013-01-25 10:51:00,
2013-01-25 05:56:00,0.2,-3.0,30.45,NE,36,0.0,0.0,86,0.00,-SN,,0.00,WeatherDisplay:10.37,2013-01-25 10:56:00,
2013-01-25 06:01:00,0.1,-3.1,30.45,NE,36,0.0,0.0,86,0.00,BKN,,0.00,WeatherDisplay:10.37,2013-01-25 11:01:00,
2013-01-25 06:06:00,0.1,-2.9,30.45,NE,36,0.0,0.0,87,0.00,BKN,,0.00,WeatherDisplay:10.37,2013-01-25 11:06:00,
2013-01-25 06:12:00,0.2,-2.8,30.45,NE,36,0.0,0.0,87,0.00,BKN,,0.00,WeatherDisplay:10.37,2013-01-25 11:12:00,
2013-01-25 06:17:00,0.2,-2.8,30.45,NE,46,0.0,0.0,87,0.00,BKN,,0.00,WeatherDisplay:10.37,2013-01-25 11:17:00,
2013-01-25 06:22:00,0.2,-2.8,30.45,NE,44,0.0,0.0,87,0.00,BKN,,0.00,WeatherDisplay:10.37,2013-01-25 11:22:00,
2013-01-25 06:27:00,0.1,-3.1,30.45,NE,44,0.0,0.0,86,0.00,BKN,,0.00,WeatherDisplay:10.37,2013-01-25 11:27:00,
2013-01-25 06:33:00,0.1,-2.9,30.45,NE,44,0.0,0.0,87,0.00,BKN,,0.00,WeatherDisplay:10.37,2013-01-25 11:33:00,
2013-01-25 06:38:00,0.1,-2.9,30.45,NE,44,0.0,0.0,87,0.00,BKN,,0.00,WeatherDisplay:10.37,2013-01-25 11:38:00,
2013-01-25 06:43:00,0.0,-3.2,30.44,NE,44,0.0,0.0,86,0.00,BKN,,0.00,WeatherDisplay:10.37,2013-01-25 11:43:00,
2013-01-25 06:48:00,-0.1,-3.3,30.44,NE,44,0.0,0.0,86,0.00,BKN,,0.00,WeatherDisplay:10.37,2013-01-25 11:48:00,
2013-01-25 06:53:00,-0.2,-3.1,30.44,NE,48,0.0,0.0,87,0.00,BKN,,0.00,WeatherDisplay:10.37,2013-01-25 11:53:00,
2013-01-25 06:58:00,-0.2,-3.1,30.44,NE,48,0.0,0.0,87,0.00,BKN,,0.00,WeatherDisplay:10.37,2013-01-25 11:58:00,
2013-01-25 07:04:00,-0.2,-3.1,30.44,NE,49,0.0,0.0,87,0.00,BKN,,0.00,WeatherDisplay:10.37,2013-01-25 12:04:00,
2013-01-25 07:09:00,-0.3,-3.5,30.44,NE,49,0.0,0.0,86,0.00,BKN,,0.00,WeatherDisplay:10.37,2013-01-25 12:09:00,
2013-01-25 07:14:00,-0.4,-3.6,30.44,NE,49,0.0,0.0,86,0.00,BKN,,0.00,WeatherDisplay:10.37,2013-01-25 12:14:00,
2013-01-25 07:19:00,-0.4,-3.3,30.44,NE,49,0.0,0.0,87,0.00,BKN,,0.00,WeatherDisplay:10.37,2013-01-25 12:19:00,
2013-01-25 07:24:00,-0.4,-3.3,30.44,NE,49,0.0,0.0,87,0.00,BKN,,0.00,WeatherDisplay:10.37,2013-01-25 12:24:00,
2013-01-25 07:29:00,-0.3,-3.2,30.44,NE,49,0.0,0.0,87,0.00,BKN,,0.00,WeatherDisplay:10.37,2013-01-25 12:29:00,
2013-01-25 07:35:00,-0.3,-3.2,30.44,NE,49,0.0,0.0,87,0.00,BKN,,0.00,WeatherDisplay:10.37,2013-01-25 12:35:00,
2013-01-25 07:40:00,-0.4,-3.3,30.44,East,92,0.0,0.0,87,0.00,BKN,,0.00,WeatherDisplay:10.37,2013-01-25 12:40:00,
2013-01-25 07:45:00,-0.3,-3.2,30.44,East,92,0.0,0.0,87,0.00,BKN,,0.00,WeatherDisplay:10.37,2013-01-25 12:45:00,
2013-01-25 07:50:00,-0.4,-3.6,30.44,ESE,117,0.1,1.1,86,0.00,BKN,,0.00,WeatherDisplay:10.37,2013-01-25 12:50:00,
2013-01-25 07:56:00,-0.3,-3.5,30.44,SE,128,0.0,1.1,86,0.00,BKN,,0.00,WeatherDisplay:10.37,2013-01-25 12:56:00,
2013-01-25 08:01:00,-0.2,-3.1,30.44,SE,128,0.0,0.0,87,0.00,OVC,,0.00,WeatherDisplay:10.37,2013-01-25 13:01:00,
2013-01-25 08:06:00,0.1,-2.9,30.44,SE,134,0.0,1.1,87,0.00,OVC,,0.00,WeatherDisplay:10.37,2013-01-25 13:06:00,
2013-01-25 08:11:00,0.4,-2.6,30.44,ESE,115,0.4,2.3,87,0.00,OVC,,0.00,WeatherDisplay:10.37,2013-01-25 13:11:00,
2013-01-25 08:17:00,0.7,-2.3,30.44,SSE,152,0.0,0.0,87,0.00,OVC,,0.00,WeatherDisplay:10.37,2013-01-25 13:17:00,
2013-01-25 08:22:00,1.0,-2.2,30.44,ESE,117,0.0,1.0,86,0.00,OVC,,0.00,WeatherDisplay:10.37,2013-01-25 13:22:00,
2013-01-25 08:27:00,1.5,-2.0,30.44,ESE,117,0.0,0.0,85,0.00,OVC,,0.00,WeatherDisplay:10.37,2013-01-25 13:27:00,
2013-01-25 08:32:00,2.0,-1.7,30.43,East,87,0.9,2.3,84,0.00,OVC,,0.00,WeatherDisplay:10.37,2013-01-25 13:32:00,
2013-01-25 08:37:00,2.4,-1.6,30.43,East,89,0.3,1.1,83,0.00,OVC,,0.00,WeatherDisplay:10.37,2013-01-25 13:37:00,
2013-01-25 08:43:00,2.8,-1.4,30.43,East,90,0.0,0.0,82,0.00,OVC,,0.00,WeatherDisplay:10.37,2013-01-25 13:43:00,
2013-01-25 08:48:00,3.2,-1.6,30.42,SE,126,0.2,1.1,80,0.00,OVC,,0.00,WeatherDisplay:10.37,2013-01-25 13:48:00,
2013-01-25 08:53:00,3.4,-1.7,30.42,East,85,1.6,3.5,79,0.00,OVC,,0.00,WeatherDisplay:10.37,2013-01-25 13:53:00,
2013-01-25 08:58:00,3.7,-1.6,30.42,ESE,113,0.1,1.1,78,0.00,OVC,,0.00,WeatherDisplay:10.37,2013-01-25 13:58:00,
2013-01-25 09:03:00,4.0,-1.6,30.42,East,86,0.0,1.1,77,0.00,OVC,,0.00,WeatherDisplay:10.37,2013-01-25 14:03:00,
2013-01-25 09:09:00,4.2,-1.4,30.42,ENE,76,0.2,1.1,77,0.00,OVC,,0.00,WeatherDisplay:10.37,2013-01-25 14:09:00,
2013-01-25 09:14:00,4.5,-1.1,30.42,East,84,0.8,2.3,77,0.00,OVC,,0.00,WeatherDisplay:10.37,2013-01-25 14:14:00,
2013-01-25 09:19:00,4.8,-1.1,30.42,ENE,75,0.0,0.0,76,0.00,OVC,,0.00,WeatherDisplay:10.37,2013-01-25 14:19:00,
2013-01-25 09:24:00,5.1,-1.1,30.42,ESE,115,0.6,3.5,75,0.00,OVC,,0.00,WeatherDisplay:10.37,2013-01-25 14:24:00,
2013-01-25 09:29:00,5.5,-0.7,30.41,ESE,103,0.0,1.1,75,0.00,OVC,,0.00,WeatherDisplay:10.37,2013-01-25 14:29:00,
2013-01-25 09:35:00,5.9,-0.6,30.41,ESE,106,0.6,2.3,74,0.00,OVC,,0.00,WeatherDisplay:10.37,2013-01-25 14:35:00,
2013-01-25 09:40:00,6.2,-0.6,30.41,East,89,1.3,5.0,73,0.00,OVC,,0.00,WeatherDisplay:10.37,2013-01-25 14:40:00,
2013-01-25 09:45:00,6.5,-0.3,30.41,ENE,59,0.2,1.1,73,0.00,OVC,,0.00,WeatherDisplay:10.37,2013-01-25 14:45:00,
2013-01-25 09:50:00,6.9,-0.2,30.40,SSE,148,0.2,2.3,72,0.00,OVC,,0.00,WeatherDisplay:10.37,2013-01-25 14:50:00,
2013-01-25 09:55:00,7.0,-0.1,30.40,East,95,0.8,1.1,72,0.00,OVC,,0.00,WeatherDisplay:10.37,2013-01-25 14:55:00,
2013-01-25 10:00:00,7.2,-0.2,30.40,East,87,0.9,1.1,71,0.00,OVC,,0.00,WeatherDisplay:10.37,2013-01-25 15:00:00,
2013-01-25 10:06:00,7.5,0.4,30.40,ENE,61,0.0,0.0,72,0.00,OVC,,0.00,WeatherDisplay:10.37,2013-01-25 15:06:00,
2013-01-25 10:11:00,7.7,0.2,30.40,NE,40,1.8,3.5,71,0.00,OVC,,0.00,WeatherDisplay:10.37,2013-01-25 15:11:00,
2013-01-25 10:16:00,8.0,0.8,30.39,ENE,74,2.1,3.5,72,0.00,OVC,,0.00,WeatherDisplay:10.37,2013-01-25 15:16:00,
2013-01-25 10:21:00,8.3,1.1,30.39,ENE,70,0.1,1.1,72,0.00,OVC,,0.00,WeatherDisplay:10.37,2013-01-25 15:21:00,
2013-01-25 10:27:00,8.4,0.6,30.39,ENE,66,0.6,2.3,70,0.00,OVC,,0.00,WeatherDisplay:10.37,2013-01-25 15:27:00,
2013-01-25 10:32:00,8.7,1.5,30.39,NE,38,2.3,3.5,72,0.00,OVC,,0.00,WeatherDisplay:10.37,2013-01-25 15:32:00,
2013-01-25 10:37:00,9.1,1.6,30.39,ENE,66,1.4,4.0,71,0.00,OVC,,0.00,WeatherDisplay:10.37,2013-01-25 15:37:00,
2013-01-25 10:42:00,9.5,1.7,30.38,NNE,25,2.4,3.5,70,0.00,OVC,,0.00,WeatherDisplay:10.37,2013-01-25 15:42:00,
2013-01-25 10:47:00,10.1,2.3,30.38,NE,53,2.5,4.6,70,0.00,OVC,,0.00,WeatherDisplay:10.37,2013-01-25 15:47:00,
2013-01-25 10:53:00,10.4,2.2,30.38,NNE,22,2.3,3.5,69,0.00,OVC,,0.00,WeatherDisplay:10.37,2013-01-25 15:53:00,
2013-01-25 10:58:00,10.6,2.7,30.37,ENE,68,2.4,4.0,70,0.00,OVC,,0.00,WeatherDisplay:10.37,2013-01-25 15:58:00,
2013-01-25 11:03:00,10.7,2.5,30.37,NE,55,2.8,5.0,69,0.00,OVC,,0.00,WeatherDisplay:10.37,2013-01-25 16:03:00,
2013-01-25 11:08:00,11.0,3.4,30.36,NNE,30,2.7,4.0,71,0.00,OVC,,0.00,WeatherDisplay:10.37,2013-01-25 16:08:00,
2013-01-25 11:14:00,11.5,3.0,30.36,NE,55,2.5,4.0,68,0.00,OVC,,0.00,WeatherDisplay:10.37,2013-01-25 16:14:00,
2013-01-25 11:19:00,11.9,3.7,30.35,NE,44,2.6,3.5,69,0.00,OVC,,0.00,WeatherDisplay:10.37,2013-01-25 16:19:00,
2013-01-25 11:24:00,12.2,4.0,30.34,NNE,31,1.3,3.5,69,0.00,OVC,,0.00,WeatherDisplay:10.37,2013-01-25 16:24:00,
2013-01-25 11:29:00,12.3,3.4,30.34,NNE,32,4.0,5.8,67,0.00,OVC,,0.00,WeatherDisplay:10.37,2013-01-25 16:29:00,
2013-01-25 11:34:00,12.2,3.6,30.34,NE,38,4.0,6.9,68,0.00,OVC,,0.00,WeatherDisplay:10.37,2013-01-25 16:34:00,
2013-01-25 11:39:00,12.3,4.4,30.33,NE,51,0.6,4.6,70,0.00,OVC,,0.00,WeatherDisplay:10.37,2013-01-25 16:39:00,
2013-01-25 11:45:00,12.5,4.3,30.33,NE,43,2.6,4.6,69,0.00,OVC,,0.00,WeatherDisplay:10.37,2013-01-25 16:45:00,
2013-01-25 11:50:00,12.7,3.8,30.33,NE,46,0.7,2.3,67,0.00,OVC,,0.00,WeatherDisplay:10.37,2013-01-25 16:50:00,
2013-01-25 11:55:00,12.7,3.8,30.32,East,85,1.4,4.6,67,0.00,OVC,,0.00,WeatherDisplay:10.37,2013-01-25 16:55:00,
2013-01-25 12:00:00,12.7,4.1,30.31,NNE,30,3.8,3.8,68,0.00,OVC,,0.00,WeatherDisplay:10.37,2013-01-25 17:00:00,
2013-01-25 12:05:00,12.9,4.3,30.31,ENE,78,2.4,4.6,68,0.00,OVC,,0.00,WeatherDisplay:10.37,2013-01-25 17:05:00,
2013-01-25 12:11:00,13.1,4.5,30.30,North,355,1.6,3.5,68,0.00,OVC,,0.00,WeatherDisplay:10.37,2013-01-25 17:11:00,
2013-01-25 12:16:00,13.3,4.4,30.30,ENE,61,1.8,3.5,67,0.00,OVC,,0.00,WeatherDisplay:10.37,2013-01-25 17:16:00,
2013-01-25 12:21:00,13.4,4.8,30.30,NE,50,3.1,4.6,68,0.00,OVC,,0.00,WeatherDisplay:10.37,2013-01-25 17:21:00,
2013-01-25 12:26:00,13.8,5.5,30.30,NNE,33,1.1,5.8,69,0.00,OVC,,0.00,WeatherDisplay:10.37,2013-01-25 17:26:00,
2013-01-25 12:31:00,13.8,4.9,30.30,NE,41,1.9,4.0,67,0.00,OVC,,0.00,WeatherDisplay:10.37,2013-01-25 17:31:00,
2013-01-25 12:37:00,14.1,5.8,30.29,NE,53,4.1,4.6,69,0.00,OVC,,0.00,WeatherDisplay:10.37,2013-01-25 17:37:00,
2013-01-25 12:42:00,14.6,6.3,30.29,NE,35,3.6,4.6,69,0.00,OVC,,0.00,WeatherDisplay:10.37,2013-01-25 17:42:00,
2013-01-25 12:47:00,14.9,5.9,30.28,NNE,14,4.0,6.9,67,0.00,OVC,,0.00,WeatherDisplay:10.37,2013-01-25 17:47:00,
2013-01-25 12:52:00,14.9,5.9,30.27,ENE,66,4.2,4.6,67,0.00,OVC,,0.00,WeatherDisplay:10.37,2013-01-25 17:52:00,
2013-01-25 12:58:00,14.8,5.5,30.27,NE,36,5.9,6.9,66,0.00,OVC,,0.00,WeatherDisplay:10.37,2013-01-25 17:58:00,
2013-01-25 13:03:00,14.7,6.0,30.27,NE,53,2.2,3.5,68,0.00,BKN,,0.00,WeatherDisplay:10.37,2013-01-25 18:03:00,
2013-01-25 13:08:00,14.9,5.9,30.27,ENE,61,1.4,4.0,67,0.00,BKN,,0.00,WeatherDisplay:10.37,2013-01-25 18:08:00,
2013-01-25 13:13:00,15.0,6.0,30.26,NNE,26,4.1,5.8,67,0.00,BKN,,0.00,WeatherDisplay:10.37,2013-01-25 18:13:00,
2013-01-25 13:18:00,15.3,6.0,30.26,NE,44,1.9,3.5,66,0.00,BKN,,0.00,WeatherDisplay:10.37,2013-01-25 18:18:00,
2013-01-25 13:24:00,15.2,5.9,30.26,NE,51,3.3,4.6,66,0.00,BKN,,0.00,WeatherDisplay:10.37,2013-01-25 18:24:00,
2013-01-25 13:29:00,15.0,6.0,30.26,NNE,29,0.5,2.3,67,0.00,BKN,,0.00,WeatherDisplay:10.37,2013-01-25 18:29:00,
2013-01-25 13:34:00,14.9,6.2,30.26,ENE,74,3.1,3.5,68,0.00,BKN,,0.00,WeatherDisplay:10.37,2013-01-25 18:34:00,
2013-01-25 13:39:00,14.5,5.5,30.25,ENE,59,0.2,1.1,67,0.00,BKN,,0.00,WeatherDisplay:10.37,2013-01-25 18:39:00,
2013-01-25 13:44:00,14.4,6.1,30.25,ENE,58,2.5,4.6,69,0.00,BKN,,0.00,WeatherDisplay:10.37,2013-01-25 18:44:00,
2013-01-25 13:49:00,14.4,6.1,30.25,North,10,3.7,3.7,69,0.00,BKN,,0.00,WeatherDisplay:10.37,2013-01-25 18:49:00,
2013-01-25 13:55:00,14.6,6.6,30.25,North,360,2.9,3.5,70,0.00,BKN,,0.00,WeatherDisplay:10.37,2013-01-25 18:55:00,
2013-01-25 14:00:00,14.7,6.7,30.24,North,5,4.2,6.9,70,0.00,BKN,,0.00,WeatherDisplay:10.37,2013-01-25 19:00:00,
2013-01-25 14:05:00,14.9,6.6,30.24,NNE,28,4.4,6.9,69,0.00,CLR,,0.00,WeatherDisplay:10.37,2013-01-25 19:05:00,
2013-01-25 14:10:00,14.9,6.2,30.24,NE,45,2.9,6.9,68,0.00,CLR,,0.00,WeatherDisplay:10.37,2013-01-25 19:10:00,
2013-01-25 14:15:00,15.0,6.7,30.23,North,5,2.3,4.0,69,0.00,CLR,,0.00,WeatherDisplay:10.37,2013-01-25 19:15:00,
2013-01-25 14:21:00,15.2,6.8,30.23,NNE,14,3.5,5.8,69,0.00,CLR,,0.00,WeatherDisplay:10.37,2013-01-25 19:21:00,
2013-01-25 14:26:00,15.3,6.0,30.23,ENE,69,0.5,2.3,66,0.00,CLR,,0.00,WeatherDisplay:10.37,2013-01-25 19:26:00,
2013-01-25 14:31:00,15.3,6.0,30.23,NE,40,4.6,6.9,66,0.00,CLR,,0.00,WeatherDisplay:10.37,2013-01-25 19:31:00,
2013-01-25 14:36:00,15.0,6.0,30.24,WNW,298,3.5,6.9,67,0.00,CLR,,0.00,WeatherDisplay:10.37,2013-01-25 19:36:00,
2013-01-25 14:41:00,14.8,5.5,30.23,NE,54,4.3,6.9,66,0.00,CLR,,0.00,WeatherDisplay:10.37,2013-01-25 19:41:00,
2013-01-25 14:46:00,14.6,6.0,30.23,NE,51,5.2,7.0,68,0.00,CLR,,0.00,WeatherDisplay:10.37,2013-01-25 19:46:00,
2013-01-25 14:52:00,14.6,5.6,30.22,NNE,16,2.8,8.1,67,0.00,CLR,,0.00,WeatherDisplay:10.37,2013-01-25 19:52:00,
2013-01-25 14:57:00,14.7,6.0,30.22,North,5,4.4,8.1,68,0.00,CLR,,0.00,WeatherDisplay:10.37,2013-01-25 19:57:00,
2013-01-25 15:02:00,14.8,6.1,30.22,NE,43,5.1,6.9,68,0.00,OVC,,0.00,WeatherDisplay:10.37,2013-01-25 20:02:00,
2013-01-25 15:07:00,14.8,5.8,30.22,NNE,17,2.1,9.2,67,0.00,OVC,,0.00,WeatherDisplay:10.37,2013-01-25 20:07:00,
2013-01-25 15:12:00,14.6,6.0,30.22,NNE,12,4.8,8.1,68,0.00,OVC,,0.00,WeatherDisplay:10.37,2013-01-25 20:12:00,
2013-01-25 15:18:00,14.5,6.2,30.22,North,355,1.9,3.5,69,0.00,OVC,,0.00,WeatherDisplay:10.37,2013-01-25 20:18:00,
2013-01-25 15:23:00,14.5,6.2,30.21,NNE,13,1.1,3.5,69,0.00,OVC,,0.00,WeatherDisplay:10.37,2013-01-25 20:23:00,
2013-01-25 15:28:00,14.4,5.8,30.21,NE,38,1.7,3.5,68,0.00,OVC,,0.00,WeatherDisplay:10.37,2013-01-25 20:28:00,
2013-01-25 15:33:00,14.2,5.6,30.21,NE,44,4.1,8.1,68,0.00,OVC,,0.00,WeatherDisplay:10.37,2013-01-25 20:33:00,
2013-01-25 15:38:00,13.9,5.6,30.20,NE,55,3.3,4.6,69,0.00,OVC,,0.00,WeatherDisplay:10.37,2013-01-25 20:38:00,
2013-01-25 15:44:00,13.8,4.9,30.20,NE,40,3.5,6.9,67,0.00,OVC,,0.00,WeatherDisplay:10.37,2013-01-25 20:44:00,
2013-01-25 15:49:00,13.6,4.3,30.20,NE,42,1.5,3.5,66,0.00,OVC,,0.00,WeatherDisplay:10.37,2013-01-25 20:49:00,
2013-01-25 15:54:00,13.5,4.9,30.20,NE,34,1.1,3.5,68,0.00,OVC,,0.00,WeatherDisplay:10.37,2013-01-25 20:54:00,
2013-01-25 15:59:00,13.4,4.8,30.20,NE,53,1.6,4.6,68,0.00,OVC,,0.00,WeatherDisplay:10.37,2013-01-25 20:59:00,
2013-01-25 16:04:00,13.4,4.1,30.19,NE,48,1.3,2.3,66,0.00,OVC,,0.00,WeatherDisplay:10.37,2013-01-25 21:04:00,
2013-01-25 16:09:00,13.2,3.6,30.19,NNE,32,2.1,3.5,65,0.00,OVC,,0.00,WeatherDisplay:10.37,2013-01-25 21:09:00,
2013-01-25 16:14:00,13.2,4.3,30.19,NE,48,0.4,2.3,67,0.00,OVC,,0.00,WeatherDisplay:10.37,2013-01-25 21:14:00,
2013-01-25 16:19:00,13.2,4.9,30.19,NE,53,1.5,3.5,69,0.00,OVC,,0.00,WeatherDisplay:10.37,2013-01-25 21:19:00,
2013-01-25 16:24:00,13.3,5.3,30.18,NNE,27,1.2,3.5,70,0.00,OVC,,0.00,WeatherDisplay:10.37,2013-01-25 21:24:00,
2013-01-25 16:30:00,13.3,4.4,30.18,NE,55,1.6,3.5,67,0.00,OVC,,0.00,WeatherDisplay:10.37,2013-01-25 21:30:00,
2013-01-25 16:35:00,13.2,4.0,30.18,NE,35,1.9,3.5,66,0.00,OVC,,0.00,WeatherDisplay:10.37,2013-01-25 21:35:00,
2013-01-25 16:40:00,13.1,4.2,30.18,NE,38,0.4,2.3,67,0.00,OVC,,0.00,WeatherDisplay:10.37,2013-01-25 21:40:00,
2013-01-25 16:45:00,13.1,4.5,30.17,NE,51,1.0,2.3,68,0.00,OVC,,0.00,WeatherDisplay:10.37,2013-01-25 21:45:00,
2013-01-25 16:50:00,13.0,4.1,30.17,East,79,1.4,3.5,67,0.00,OVC,,0.00,WeatherDisplay:10.37,2013-01-25 21:50:00,
2013-01-25 16:56:00,12.9,3.3,30.17,ENE,68,1.3,3.5,65,0.00,OVC,,0.00,WeatherDisplay:10.37,2013-01-25 21:56:00,
2013-01-25 17:01:00,12.8,3.2,30.17,NE,54,0.9,4.6,65,0.00,OVC,,0.00,WeatherDisplay:10.37,2013-01-25 22:01:00,
2013-01-25 17:06:00,12.7,3.5,30.16,ENE,68,1.9,3.5,66,0.00,OVC,,0.00,WeatherDisplay:10.37,2013-01-25 22:06:00,
2013-01-25 17:11:00,12.6,3.4,30.16,ENE,71,0.1,3.0,66,0.00,OVC,,0.00,WeatherDisplay:10.37,2013-01-25 22:11:00,
2013-01-25 17:16:00,12.6,3.7,30.16,ENE,58,1.5,3.5,67,0.00,OVC,,0.00,WeatherDisplay:10.37,2013-01-25 22:16:00,
2013-01-25 17:21:00,12.5,3.6,30.16,ESE,111,0.3,0.0,67,0.00,OVC,,0.00,WeatherDisplay:10.37,2013-01-25 22:21:00,
2013-01-25 17:27:00,12.5,3.3,30.16,ENE,59,0.6,2.3,66,0.00,OVC,,0.00,WeatherDisplay:10.37,2013-01-25 22:27:00,
2013-01-25 17:32:00,12.5,3.3,30.16,East,88,1.5,3.5,66,0.00,OVC,,0.00,WeatherDisplay:10.37,2013-01-25 22:32:00,
2013-01-25 17:37:00,12.5,3.0,30.16,East,82,1.0,3.5,65,0.00,OVC,,0.00,WeatherDisplay:10.37,2013-01-25 22:37:00,
2013-01-25 17:42:00,12.4,3.2,30.15,East,92,1.4,3.5,66,0.00,OVC,,0.00,WeatherDisplay:10.37,2013-01-25 22:42:00,
2013-01-25 17:48:00,12.5,4.3,30.15,ESE,111,0.2,2.3,69,0.00,OVC,,0.00,WeatherDisplay:10.37,2013-01-25 22:48:00,
2013-01-25 17:53:00,12.5,4.3,30.15,ENE,62,1.9,3.5,69,0.00,OVC,,0.00,WeatherDisplay:10.37,2013-01-25 22:53:00,
2013-01-25 17:58:00,12.5,4.6,30.15,ENE,66,1.3,3.5,70,0.00,OVC,,0.00,WeatherDisplay:10.37,2013-01-25 22:58:00,
2013-01-25 18:03:00,12.3,5.0,30.15,East,97,0.6,3.5,72,0.00,-SN,,0.00,WeatherDisplay:10.37,2013-01-25 23:03:00,
2013-01-25 18:08:00,12.2,5.5,30.15,ENE,78,2.4,3.5,74,0.00,-SN,,0.00,WeatherDisplay:10.37,2013-01-25 23:08:00,
2013-01-25 18:14:00,11.9,5.5,30.15,East,79,0.4,3.5,75,0.00,-SN,,0.00,WeatherDisplay:10.37,2013-01-25 23:14:00,
2013-01-25 18:19:00,11.7,5.6,30.15,East,96,1.1,3.5,76,0.00,-SN,,0.00,WeatherDisplay:10.37,2013-01-25 23:19:00,
2013-01-25 18:24:00,11.5,6.0,30.15,East,94,0.7,2.3,78,0.00,-SN,,0.00,WeatherDisplay:10.37,2013-01-25 23:24:00,
2013-01-25 18:29:00,11.3,6.1,30.15,East,81,0.0,0.0,79,0.00,-SN,,0.00,WeatherDisplay:10.37,2013-01-25 23:29:00,
2013-01-25 18:34:00,11.2,6.5,30.15,East,88,1.5,1.5,81,0.00,-SN,,0.00,WeatherDisplay:10.37,2013-01-25 23:34:00,
2013-01-25 18:39:00,11.2,6.8,30.15,ESE,104,0.0,2.3,82,0.00,-SN,,0.00,WeatherDisplay:10.37,2013-01-25 23:39:00,
2013-01-25 18:45:00,11.1,6.9,30.15,ESE,109,0.2,1.1,83,0.00,-SN,,0.00,WeatherDisplay:10.37,2013-01-25 23:45:00,
2013-01-25 18:50:00,11.0,7.1,30.15,ENE,59,0.6,3.5,84,0.00,-SN,,0.00,WeatherDisplay:10.37,2013-01-25 23:50:00,
2013-01-25 18:55:00,11.0,7.4,30.15,ENE,69,2.2,3.5,85,0.00,-SN,,0.00,WeatherDisplay:10.37,2013-01-25 23:55:00,
2013-01-25 19:00:00,10.9,7.3,30.15,ENE,66,0.0,1.1,85,0.00,-SN,,0.00,WeatherDisplay:10.37,2013-01-26 00:00:00,
2013-01-25 19:06:00,10.8,7.2,30.15,ENE,76,0.5,2.3,85,0.00,-SN,,0.00,WeatherDisplay:10.37,2013-01-26 00:06:00,
2013-01-25 19:11:00,10.8,7.2,30.15,NE,55,0.7,1.1,85,0.00,-SN,,0.00,WeatherDisplay:10.37,2013-01-26 00:11:00,
2013-01-25 19:16:00,10.7,7.1,30.14,NE,55,0.0,0.0,85,0.00,-SN,,0.00,WeatherDisplay:10.37,2013-01-26 00:16:00,
2013-01-25 19:21:00,10.6,7.0,30.14,ENE,62,0.0,0.0,85,0.00,-SN,,0.00,WeatherDisplay:10.37,2013-01-26 00:21:00,
2013-01-25 19:26:00,10.5,7.1,30.14,ESE,109,1.1,2.3,86,0.00,-SN,,0.00,WeatherDisplay:10.37,2013-01-26 00:26:00,
2013-01-25 19:31:00,10.5,7.1,30.14,ESE,104,0.2,1.0,86,0.00,-SN,,0.00,WeatherDisplay:10.37,2013-01-26 00:31:00,
2013-01-25 19:37:00,10.5,7.1,30.14,ENE,77,0.2,1.1,86,0.00,-SN,,0.00,WeatherDisplay:10.37,2013-01-26 00:37:00,
2013-01-25 19:42:00,10.4,7.0,30.14,ENE,77,0.0,0.0,86,0.00,-SN,,0.00,WeatherDisplay:10.37,2013-01-26 00:42:00,
2013-01-25 19:47:00,10.4,7.3,30.14,ENE,68,0.0,0.0,87,0.00,-SN,,0.00,WeatherDisplay:10.37,2013-01-26 00:47:00,
2013-01-25 19:52:00,10.4,7.3,30.14,ENE,67,0.6,2.3,87,0.00,-SN,,0.00,WeatherDisplay:10.37,2013-01-26 00:52:00,
2013-01-25 19:57:00,10.4,7.3,30.14,East,90,0.7,1.0,87,0.00,-SN,,0.00,WeatherDisplay:10.37,2013-01-26 00:57:00,
2013-01-25 20:02:00,10.4,7.3,30.14,East,90,0.0,0.0,87,0.00,-SN,,0.00,WeatherDisplay:10.37,2013-01-26 01:02:00,
2013-01-25 20:08:00,10.3,7.2,30.13,East,90,0.2,2.3,87,0.00,-SN,,0.00,WeatherDisplay:10.37,2013-01-26 01:08:00,
2013-01-25 20:13:00,10.3,7.2,30.13,East,94,0.3,1.1,87,0.00,-SN,,0.00,WeatherDisplay:10.37,2013-01-26 01:13:00,
2013-01-25 20:18:00,10.3,7.2,30.13,East,94,0.0,0.0,87,0.00,-SN,,0.00,WeatherDisplay:10.37,2013-01-26 01:18:00,
2013-01-25 20:23:00,10.3,7.2,30.12,East,95,0.3,1.1,87,0.00,-SN,,0.00,WeatherDisplay:10.37,2013-01-26 01:23:00,
2013-01-25 20:29:00,10.2,7.1,30.12,East,95,0.0,0.0,87,0.00,-SN,,0.00,WeatherDisplay:10.37,2013-01-26 01:29:00,
2013-01-25 20:34:00,10.3,7.5,30.13,East,93,0.0,0.0,88,0.00,-SN,,0.00,WeatherDisplay:10.37,2013-01-26 01:34:00,
2013-01-25 20:39:00,10.2,7.4,30.13,ESE,113,0.0,0.0,88,0.00,-SN,,0.00,WeatherDisplay:10.37,2013-01-26 01:39:00,
2013-01-25 20:44:00,10.2,7.1,30.12,East,101,0.0,0.0,87,0.00,-SN,,0.00,WeatherDisplay:10.37,2013-01-26 01:44:00,
2013-01-25 20:50:00,10.1,7.0,30.12,East,101,0.0,0.0,87,0.00,-SN,,0.00,WeatherDisplay:10.37,2013-01-26 01:50:00,
2013-01-25 20:55:00,10.1,7.3,30.13,East,101,0.0,0.0,88,0.00,-SN,,0.00,WeatherDisplay:10.37,2013-01-26 01:55:00,
2013-01-25 21:00:00,10.1,7.3,30.13,East,101,0.0,0.0,88,0.00,-SN,,0.00,WeatherDisplay:10.37,2013-01-26 02:00:00,
2013-01-25 21:05:00,10.1,7.3,30.13,East,101,0.0,0.0,88,0.00,-SN,,0.00,WeatherDisplay:10.37,2013-01-26 02:05:00,
2013-01-25 21:10:00,10.0,7.2,30.13,East,101,0.0,0.0,88,0.00,-SN,,0.00,WeatherDisplay:10.37,2013-01-26 02:10:00,
2013-01-25 21:16:00,10.0,7.2,30.13,East,101,0.0,0.0,88,0.00,-SN,,0.00,WeatherDisplay:10.37,2013-01-26 02:16:00,
2013-01-25 21:21:00,9.9,6.8,30.13,East,101,0.0,0.0,87,0.00,-SN,,0.00,WeatherDisplay:10.37,2013-01-26 02:21:00,
2013-01-25 21:26:00,9.8,7.0,30.13,East,101,0.0,0.0,88,0.00,-SN,,0.00,WeatherDisplay:10.37,2013-01-26 02:26:00,
2013-01-25 21:31:00,9.6,6.8,30.12,East,101,0.0,0.0,88,0.00,-SN,,0.00,WeatherDisplay:10.37,2013-01-26 02:31:00,
2013-01-25 21:36:00,9.5,6.4,30.12,East,101,0.0,0.0,87,0.00,-SN,,0.00,WeatherDisplay:10.37,2013-01-26 02:36:00,
2013-01-25 21:41:00,9.2,6.1,30.13,East,101,0.0,0.0,87,0.00,-SN,,0.00,WeatherDisplay:10.37,2013-01-26 02:41:00,
2013-01-25 21:47:00,9.1,6.0,30.13,East,101,0.0,0.0,87,0.00,-SN,,0.00,WeatherDisplay:10.37,2013-01-26 02:47:00,
2013-01-25 21:52:00,8.9,5.8,30.12,East,101,0.0,0.0,87,0.00,-SN,,0.00,WeatherDisplay:10.37,2013-01-26 02:52:00,
2013-01-25 21:57:00,8.5,5.2,30.12,East,101,0.0,0.0,86,0.00,-SN,,0.00,WeatherDisplay:10.37,2013-01-26 02:57:00,
2013-01-25 22:02:00,8.2,5.1,30.12,East,101,0.0,0.0,87,0.00,-SN,,0.00,WeatherDisplay:10.37,2013-01-26 03:02:00,
2013-01-25 22:08:00,8.0,5.2,30.12,East,101,0.0,0.0,88,0.00,-SN,,0.00,WeatherDisplay:10.37,2013-01-26 03:08:00,
2013-01-25 22:13:00,7.9,5.1,30.12,East,101,0.0,0.0,88,0.00,-SN,,0.00,WeatherDisplay:10.37,2013-01-26 03:13:00,
2013-01-25 22:18:00,7.8,5.2,30.12,East,101,0.0,0.0,89,0.00,-SN,,0.00,WeatherDisplay:10.37,2013-01-26 03:18:00,
2013-01-25 22:23:00,7.8,5.2,30.12,ESE,111,0.0,0.0,89,0.00,-SN,,0.00,WeatherDisplay:10.37,2013-01-26 03:23:00,
2013-01-25 22:28:00,7.8,5.2,30.12,ESE,111,0.0,0.0,89,0.00,-SN,,0.00,WeatherDisplay:10.37,2013-01-26 03:28:00,
2013-01-25 22:34:00,7.8,5.2,30.12,ESE,111,0.0,0.0,89,0.00,-SN,,0.00,WeatherDisplay:10.37,2013-01-26 03:34:00,
2013-01-25 22:39:00,7.8,5.2,30.12,ESE,111,0.0,0.0,89,0.00,-SN,,0.00,WeatherDisplay:10.37,2013-01-26 03:39:00,
2013-01-25 22:44:00,7.8,5.2,30.12,ESE,111,0.0,0.0,89,0.00,-SN,,0.00,WeatherDisplay:10.37,2013-01-26 03:44:00,
2013-01-25 22:49:00,7.8,5.2,30.12,ESE,111,0.0,0.0,89,0.00,-SN,,0.00,WeatherDisplay:10.37,2013-01-26 03:49:00,
2013-01-25 22:54:00,7.8,5.2,30.12,ESE,111,0.0,0.0,89,0.00,-SN,,0.00,WeatherDisplay:10.37,2013-01-26 03:54:00,
2013-01-25 23:00:00,8.0,5.7,30.12,ESE,111,0.0,0.0,90,0.00,-SN,,0.00,WeatherDisplay:10.37,2013-01-26 04:00:00,
2013-01-25 23:05:00,8.0,5.7,30.12,ESE,111,0.0,0.0,90,0.00,-SN,,0.00,WeatherDisplay:10.37,2013-01-26 04:05:00,
2013-01-25 23:10:00,8.1,5.8,30.12,ESE,111,0.0,0.0,90,0.00,-SN,,0.00,WeatherDisplay:10.37,2013-01-26 04:10:00,
2013-01-25 23:15:00,8.1,5.8,30.12,ESE,111,0.0,0.0,90,0.00,-SN,,0.00,WeatherDisplay:10.37,2013-01-26 04:15:00,
2013-01-25 23:20:00,8.2,5.9,30.12,ESE,111,0.0,0.0,90,0.00,-SN,,0.00,WeatherDisplay:10.37,2013-01-26 04:20:00,
2013-01-25 23:26:00,8.2,5.9,30.12,ESE,111,0.0,0.0,90,0.00,-SN,,0.00,WeatherDisplay:10.37,2013-01-26 04:26:00,
2013-01-25 23:31:00,8.2,5.9,30.12,ESE,111,0.0,0.0,90,0.00,-SN,,0.00,WeatherDisplay:10.37,2013-01-26 04:31:00,
2013-01-25 23:36:00,8.2,5.9,30.12,ESE,111,0.0,0.0,90,0.00,-SN,,0.00,WeatherDisplay:10.37,2013-01-26 04:36:00,
2013-01-25 23:41:00,8.1,5.5,30.12,ESE,111,0.0,0.0,89,0.00,-SN,,0.00,WeatherDisplay:10.37,2013-01-26 04:41:00,
2013-01-25 23:46:00,7.9,5.3,30.12,ESE,111,0.0,0.0,89,0.00,-SN,,0.00,WeatherDisplay:10.37,2013-01-26 04:46:00,
2013-01-25 23:52:00,7.7,5.1,30.12,ESE,111,0.0,0.0,89,0.00,-SN,,0.00,WeatherDisplay:10.37,2013-01-26 04:52:00,
2013-01-25 23:57:00,7.5,4.9,30.12,ESE,111,0.0,0.0,89,0.00,-SN,,0.00,WeatherDisplay:10.37,2013-01-26 04:57:00,